GEFSSE_con_cape1000_054.txt.gz
Probability
84 81 100 100 100 100 100 100 100 97 97 97 94 94 90 87 94 94 97 94 94 97 97 97 97 97 97 97 100 100 100 100 100 100 100 100 100 100 100 100 100 100 100
81 84 100 100 100 100 100 100 100 97 97 100 100 97 94 94 100 97 94 97 94 94 97 97 97 97 97 97 97 97 97 97 97 100 100 100 100 100 100 100 100 100 100
84 94 100 100 100 100 100 100 100 100 100 100 100 100 100 100 100 100 97 94 97 97 97 97 97 97 97 97 94 94 94 94 97 97 100 100 100 94 97 100 100 100 100
90 94 100 100 100 100 100 100 100 100 100 100 97 97 97 97 97 97 87 90 90 94 97 97 97 97 90 90 84 84 84 84 90 97 90 97 97 94 97 97 100 97 100
94 100 100 100 100 100 100 100 100 97 97 97 97 94 94 94 87 84 77 71 74 87 94 97 97 97 90 90 84 81 81 81 94 84 94 94 90 97 97 100 100 97 97
100 100 100 100 100 100 100 100 100 97 97 97 97 94 87 84 81 74 68 68 71 71 81 87 90 87 90 87 81 81 77 81 81 84 94 94 94 97 100 100 100 97 90
97 100 100 100 100 100 100 100 97 94 97 97 97 90 84 71 71 61 68 55 61 65 61 61 77 84 81 74 81 84 84 81 77 81 84 90 90 90 97 97 100 100 94
90 100 100 100 100 100 100 100 97 97 94 94 97 90 81 68 71 61 55 45 48 48 48 55 65 61 68 71 81 87 87 84 74 81 87 90 97 94 90 90 97 97 94
68 100 100 100 100 100 100 100 97 97 97 97 97 90 87 84 81 55 48 39 35 26 39 32 45 48 58 68 65 71 84 87 84 74 87 87 100 97 94 90 94 90 97
45 65 90 97 100 100 100 100 100 97 100 100 100 100 97 94 81 71 58 42 29 16 19 26 32 35 45 68 71 71 87 81 48 74 77 94 100 97 90 90 94 94 94
32 45 42 71 81 94 100 100 100 100 100 100 100 100 100 90 71 81 65 77 29 16 13 10 13 29 55 71 87 84 68 10 42 71 68 100 94 94 94 90 90 90 97
10 19 23 23 45 65 94 97 97 97 97 100 100 97 90 87 81 71 84 84 52 29 23 16 26 42 35 6 35 90 10 23 42 61 68 100 97 97 87 87 90 87 90
6 10 13 13 16 32 71 94 94 94 97 97 97 94 74 58 74 45 26 52 26 29 13 16 19 3 0 0 0 0 0 10 13 23 74 97 94 87 81 81 84 87 90
6 3 6 10 3 10 32 68 87 90 90 81 81 71 77 81 52 16 16 23 19 19 10 6 6 3 0 0 6 0 0 6 0 23 58 97 87 77 71 74 77 81 84
3 0 0 0 3 16 23 42 45 68 81 74 77 74 68 61 26 26 6 13 16 13 10 19 3 0 0 0 0 0 0 3 6 19 16 81 74 68 58 61 61 71 77
3 3 3 3 3 0 6 19 29 48 52 61 58 52 42 52 42 42 3 13 10 10 6 6 3 0 0 0 0 0 0 0 0 16 3 65 81 61 58 48 42 39 42
3 3 3 3 3 3 6 10 16 23 39 58 45 32 29 29 29 32 19 3 10 3 6 3 0 0 0 0 0 0 0 0 0 6 6 6 16 68 68 68 55 42 39
3 3 3 3 3 0 0 3 6 16 19 42 45 39 26 23 23 26 39 29 23 10 3 3 3 3 0 0 0 0 0 0 0 0 6 6 3 3 42 77 68 58 55
0 0 0 3 3 3 0 0 3 13 19 26 45 48 39 26 23 39 35 35 29 19 10 3 3 3 0 0 0 0 0 0 0 0 0 0 3 3 0 19 71 71 55
0 0 0 0 0 0 0 0 0 10 16 19 23 26 29 29 35 26 35 29 19 23 13 13 3 10 6 0 0 0 0 0 0 0 0 0 0 0 0 0 0 10 74
0 0 0 0 0 0 0 3 3 3 13 13 13 26 26 26 29 26 23 29 29 23 13 6 3 6 3 0 0 0 0 0 0 0 0 0 0 0 0 0 0 0 6
0 0 0 0 0 0 0 0 3 0 0 6 19 19 19 23 32 29 26 26 35 13 10 10 3 3 0 0 0 0 0 0 0 0 0 0 0 0 0 0 0 0 0
0 0 0 0 0 0 0 0 0 0 0 3 13 13 13 16 19 29 26 23 23 13 10 3 0 0 0 0 0 0 0 0 0 0 0 0 0 0 0 0 0 0 0
0 0 0 0 0 0 0 0 0 0 0 0 6 10 13 16 19 29 23 23 16 16 16 10 3 0 0 0 0 0 0 0 0 0 0 0 0 0 0 0 0 0 0
0 0 0 0 0 0 0 0 0 0 0 3 6 13 16 19 19 26 23 26 19 13 16 13 3 6 3 0 0 0 0 0 0 0 0 0 0 0 0 0 0 0 0
0 0 0 0 0 0 0 0 0 0 0 0 3 6 10 16 16 19 19 23 26 23 16 19 13 13 13 6 0 0 0 0 0 0 0 0 0 0 0 0 0 0 0

GEFSSE_con_cape1000_060.txt.gz
Probability
29 100 100 100 100 100 100 100 100 100 100 100 100 97 100 100 100 100 100 100 100 100 100 100 100 97 100 100 100 100 100 100 100 97 100 100 100 100 100 100 100 100 100
52 100 100 100 100 100 100 100 100 100 100 100 100 97 97 97 100 100 100 97 97 97 97 100 97 97 100 97 100 97 97 100 94 97 97 97 100 100 100 100 100 100 100
87 100 100 100 100 100 100 100 100 100 100 100 100 97 97 97 97 97 94 94 97 97 97 97 97 97 97 97 94 97 87 97 94 94 97 87 97 100 100 100 100 100 100
97 100 100 100 100 100 100 100 100 100 100 100 100 97 97 97 97 94 90 90 94 94 97 97 97 97 90 94 90 87 94 94 94 94 84 87 87 100 100 100 97 97 97
81 100 100 100 100 100 100 100 100 100 100 100 97 97 97 94 94 90 87 81 84 90 94 97 97 94 90 90 90 77 90 94 90 90 71 68 71 97 100 100 100 97 97
87 100 100 100 100 100 100 100 100 97 97 97 97 97 94 94 87 81 77 74 74 84 84 94 90 94 94 90 87 87 90 87 84 77 71 71 74 90 94 100 100 94 97
97 97 100 100 100 100 100 100 100 100 100 97 97 94 94 84 77 77 77 77 71 74 74 71 81 84 90 84 84 90 87 84 74 58 65 71 77 94 94 94 100 97 94
97 97 100 100 100 100 100 100 100 100 100 100 100 97 90 87 84 81 74 71 65 68 65 65 77 77 81 84 77 90 81 81 81 65 65 71 87 97 94 97 97 94 87
77 87 87 97 100 100 100 100 100 100 100 100 100 100 94 94 94 81 71 65 61 61 52 55 65 71 77 90 81 84 90 81 52 61 71 74 90 97 97 94 97 97 97
32 35 45 55 81 97 100 100 100 100 100 100 100 100 100 100 94 90 87 81 68 52 58 55 52 58 74 94 94 97 97 74 32 55 65 81 100 94 97 94 97 100 97
16 16 16 26 35 45 68 97 100 100 100 100 100 100 100 90 84 81 81 87 77 65 61 58 61 65 74 81 94 97 81 13 13 39 55 87 100 94 90 90 97 100 94
6 6 6 10 16 23 42 55 77 90 94 100 97 94 97 81 58 68 65 94 90 90 81 71 71 74 61 10 26 71 19 6 6 26 58 100 97 90 90 90 87 90 97
3 3 3 3 3 6 13 13 26 42 58 77 81 81 81 65 32 58 13 68 94 87 52 32 58 29 10 3 0 0 0 0 10 13 52 100 97 90 90 90 90 90 97
3 0 3 3 3 3 3 6 10 13 26 48 42 55 52 42 19 6 6 16 19 23 10 6 6 3 0 0 0 0 0 0 0 3 23 100 97 97 90 87 90 90 94
0 0 0 0 0 0 3 3 3 3 10 19 19 26 26 29 16 3 3 3 6 0 3 0 0 0 0 0 0 0 0 0 0 0 16 100 100 100 87 84 90 90 94
0 0 0 0 0 0 0 3 3 3 3 3 3 6 13 16 10 0 0 0 0 0 0 0 0 0 0 0 0 0 0 0 0 0 3 71 100 100 94 84 77 87 87
0 0 0 0 0 0 0 0 0 3 3 3 3 3 6 3 0 0 0 0 0 0 0 0 0 0 0 0 0 0 0 0 0 0 3 16 48 84 94 87 81 77 81
0 0 0 0 0 0 0 0 0 0 0 0 3 3 3 3 0 0 0 3 0 0 0 0 0 0 0 0 0 0 0 0 0 0 0 3 10 35 65 94 90 81 71
0 0 0 0 0 0 0 0 0 0 0 0 3 3 0 0 0 0 0 0 3 0 0 0 0 0 0 0 0 0 0 0 0 0 0 0 0 0 13 65 90 87 94
0 0 0 0 0 0 0 0 0 0 0 0 0 0 0 0 0 0 0 0 0 0 0 3 0 0 0 0 0 0 0 0 0 0 0 0 0 0 0 10 42 48 87
0 0 0 0 0 0 0 0 0 0 0 0 0 0 0 0 0 0 0 0 0 0 0 0 0 0 0 0 0 0 0 0 0 0 0 0 0 0 0 0 6 3 6
0 0 0 0 0 0 0 0 0 0 0 0 0 0 0 0 3 3 0 0 0 0 0 0 0 0 0 0 0 0 0 0 0 0 0 0 0 0 0 0 0 0 0
0 0 0 0 0 0 0 0 0 0 0 0 0 0 0 0 3 3 3 0 0 0 0 0 0 0 0 0 0 0 0 0 0 0 0 0 0 0 0 0 0 0 0
0 0 0 0 0 0 0 0 0 0 0 0 0 0 0 0 3 6 6 3 0 0 0 0 0 0 0 0 0 0 0 0 0 0 0 0 0 0 0 0 0 0 0
0 0 0 0 0 0 0 0 0 0 0 0 0 0 0 0 0 3 6 10 3 0 0 0 0 0 0 0 0 0 0 0 0 0 0 0 0 0 0 0 0 0 0
0 0 0 0 0 0 0 0 0 0 0 0 0 0 0 0 0 0 6 10 10 6 3 3 0 0 0 0 0 0 0 0 0 0 0 0 0 0 0 0 0 0 0

GEFSSE_con_cape1000_066.txt.gz
Probability
3 45 100 100 100 100 100 100 100 100 100 100 100 100 100 100 100 100 100 100 100 100 100 100 100 100 100 100 100 100 100 97 100 100 100 100 100 100 100 100 100 100 97
23 77 100 100 100 100 100 100 100 100 100 100 100 100 100 100 100 100 100 100 100 100 100 100 100 100 100 97 94 100 100 97 97 97 100 100 100 100 100 97 100 97 97
61 100 100 100 100 100 100 100 100 100 100 100 100 100 100 100 100 100 97 94 97 97 97 97 100 100 100 94 90 94 97 100 100 97 97 87 97 97 100 97 90 94 97
84 100 100 100 100 100 100 100 100 100 100 100 100 100 97 94 94 90 90 94 94 94 97 97 97 97 90 94 87 87 94 97 97 90 81 77 84 90 97 94 94 90 97
100 100 100 100 100 100 100 100 100 100 100 100 100 100 97 94 94 90 90 87 90 90 90 97 97 94 90 90 90 87 97 94 94 74 68 68 81 94 97 94 94 94 94
94 100 100 100 100 100 100 100 100 100 100 100 100 97 97 94 87 90 87 77 81 84 90 90 90 94 94 84 87 90 94 94 74 58 61 65 74 94 94 94 94 97 97
77 97 97 100 100 100 100 100 100 100 100 100 100 97 90 90 87 84 81 81 77 81 74 74 84 90 84 74 81 87 87 90 52 58 61 71 74 90 94 94 94 94 94
52 58 68 94 97 100 97 97 100 100 100 100 100 100 97 94 84 87 87 77 77 74 68 71 74 74 71 81 77 81 81 90 74 48 58 65 77 90 94 94 94 94 87
26 26 23 32 48 84 94 100 100 100 100 100 100 100 100 100 90 90 84 77 68 65 68 65 65 65 68 81 77 71 81 90 32 35 61 65 77 90 94 94 94 97 94
6 6 16 16 19 23 35 74 90 100 97 100 100 100 97 100 100 94 90 81 71 65 58 61 58 55 58 68 77 71 84 68 23 29 35 65 81 94 90 94 97 97 97
0 0 3 3 3 13 16 29 48 77 87 94 90 97 97 97 87 90 90 90 90 81 71 61 61 55 55 68 74 77 65 16 6 13 29 71 87 90 90 90 97 97 94
0 0 0 0 3 3 6 13 13 23 39 48 68 74 81 77 77 90 87 94 90 90 90 81 71 61 48 23 19 42 6 0 0 6 19 81 94 90 87 87 90 90 94
0 0 0 0 0 3 3 6 6 6 13 26 35 42 61 65 55 74 42 45 84 94 84 81 74 39 23 10 0 0 0 0 0 3 3 84 90 90 84 84 87 90 94
0 0 0 0 0 0 0 3 3 6 6 10 10 13 16 32 26 39 32 13 13 19 23 16 16 13 3 3 0 0 0 0 0 3 3 74 97 90 81 81 84 87 87
0 0 0 0 0 0 0 0 0 0 3 3 6 6 6 6 13 26 16 16 3 3 6 0 3 0 0 3 0 0 0 0 0 3 3 42 97 97 84 77 81 87 87
0 0 0 0 0 0 0 0 0 0 0 0 0 3 6 3 3 6 13 6 3 3 3 0 0 0 0 0 0 0 0 0 0 0 3 16 81 100 97 81 84 87 90
0 0 0 0 0 0 0 0 0 0 0 0 3 0 3 3 0 0 3 3 0 3 3 0 0 0 0 0 0 0 0 0 0 0 0 3 39 87 100 90 84 87 87
0 0 0 0 0 0 0 0 0 0 0 0 0 0 0 3 3 3 0 3 0 0 0 0 0 0 0 0 0 0 0 0 0 0 0 0 3 23 74 97 94 87 87
0 0 0 0 0 0 0 0 0 0 0 0 0 0 0 0 3 0 0 3 0 0 0 0 0 0 0 0 0 0 0 0 0 0 0 0 0 3 13 52 97 90 90
0 0 0 0 0 0 0 0 0 0 0 0 0 0 0 0 0 0 0 0 0 0 0 0 0 0 0 0 0 0 0 0 0 0 0 0 0 0 0 6 42 55 81
0 0 0 0 0 0 0 0 0 0 0 0 0 0 0 0 0 0 0 0 0 0 0 0 0 0 0 0 0 0 0 0 0 0 0 0 0 0 0 0 3 19 32
0 0 0 0 0 0 0 0 0 0 0 0 0 0 0 0 0 0 0 0 0 0 0 0 0 0 0 0 0 0 0 0 0 0 0 0 0 0 0 0 0 3 6
0 0 0 0 0 0 0 0 0 0 0 0 0 0 0 0 0 0 0 0 3 0 0 0 0 0 0 0 0 0 0 0 0 0 0 0 0 0 0 0 0 0 0
0 0 0 0 0 0 0 0 0 0 0 0 0 0 0 0 0 0 0 0 3 0 0 0 0 0 0 0 0 0 0 0 0 0 0 0 0 0 0 0 0 0 0
0 0 0 0 0 0 0 0 0 0 0 0 0 0 0 0 0 0 0 3 3 3 0 0 0 0 0 0 0 0 0 0 0 0 0 0 0 0 0 0 0 0 0
0 0 0 0 0 0 0 0 0 0 0 0 0 0 0 0 0 0 0 0 3 3 6 0 0 0 0 0 0 0 0 0 0 0 0 0 0 0 0 0 0 0 0

GEFSSE_con_cape1000_072.txt.gz
Probability
19 74 97 97 97 100 100 100 97 97 100 100 97 100 100 100 100 100 100 100 100 100 100 100 100 100 100 100 100 100 100 100 100 100 100 100 100 100 97 100 90 90 94
16 68 97 97 100 100 100 100 100 100 100 100 100 100 100 100 100 97 97 97 97 100 100 100 100 100 100 100 100 100 100 97 97 100 100 100 90 94 94 94 94 97 87
29 65 97 97 100 100 100 100 100 100 100 100 100 100 100 100 100 100 97 97 97 97 100 97 97 97 94 97 94 97 97 100 94 94 100 97 97 87 90 97 94 94 90
23 58 81 100 100 100 100 100 100 100 100 100 100 100 100 97 97 97 94 90 90 97 94 94 97 100 90 87 90 94 94 100 100 97 94 87 84 87 90 90 90 94 94
32 61 87 100 100 100 100 100 100 97 100 100 100 100 100 94 94 90 87 90 90 90 94 94 97 100 90 84 87 84 84 94 90 87 94 94 97 94 90 87 84 94 94
39 52 84 97 97 97 97 90 94 97 94 97 100 97 100 94 90 87 87 84 84 87 90 90 87 94 87 81 81 87 87 90 87 77 84 94 94 90 94 90 90 90 84
32 42 61 77 87 90 94 97 94 94 100 100 94 94 94 90 84 87 84 84 81 81 81 81 84 77 68 77 77 81 94 87 81 84 87 84 90 90 94 90 87 84 84
29 26 23 26 35 58 77 94 97 97 97 97 94 94 94 94 90 90 87 81 81 74 71 71 71 68 65 68 71 71 84 84 61 58 77 87 97 87 94 90 87 84 90
16 10 10 13 23 23 39 48 71 84 90 94 94 87 90 94 90 94 81 81 77 74 68 68 65 61 52 52 61 65 74 77 65 74 52 81 87 84 87 94 94 90 94
3 3 6 6 6 10 13 23 32 45 61 71 77 84 84 87 90 87 94 94 87 74 61 55 61 58 55 52 55 58 65 58 68 65 52 68 77 81 87 90 90 97 97
0 0 0 3 3 3 6 6 16 16 26 39 61 61 71 74 71 87 84 87 87 84 71 61 58 58 58 61 55 52 48 61 45 52 68 68 68 77 84 81 87 90 90
0 0 0 0 0 0 0 3 16 13 19 19 32 48 58 65 74 61 61 87 87 84 81 74 65 58 48 45 52 52 23 48 52 48 71 71 74 81 77 81 94 94 90
0 0 0 0 0 0 0 0 3 10 16 13 13 19 35 39 45 58 71 87 84 81 81 81 74 68 52 32 32 26 16 23 23 32 55 68 71 74 77 84 87 94 94
0 0 0 0 0 0 0 0 0 0 0 10 10 10 16 32 42 42 61 65 81 77 74 77 81 58 26 10 10 3 6 23 16 26 65 61 74 68 77 77 84 97 90
0 0 0 0 0 0 0 0 0 0 0 3 3 3 6 13 23 32 45 74 74 71 71 77 58 42 29 23 3 3 3 3 6 13 52 71 77 77 84 84 87 90 87
0 0 0 0 0 0 0 0 0 0 0 0 3 3 6 10 13 23 39 45 52 61 77 74 55 52 26 19 13 3 3 3 3 10 35 61 81 94 84 81 87 90 87
0 0 0 0 0 0 0 0 0 0 0 0 3 3 6 3 3 6 29 26 39 45 55 55 32 45 32 23 10 10 3 3 3 3 10 42 68 77 90 87 84 90 87
0 0 0 0 0 0 0 0 0 0 0 0 3 3 3 0 3 6 10 26 32 42 45 48 52 55 39 29 19 13 10 29 3 6 13 26 52 45 68 97 90 87 90
0 0 0 0 0 0 0 0 0 0 0 0 0 3 3 0 0 0 13 23 16 32 42 23 42 45 39 39 26 16 19 13 10 13 6 3 19 45 55 81 87 90 90
0 0 0 0 0 0 0 0 0 0 0 0 0 0 3 3 3 3 6 10 23 32 39 42 42 39 39 26 3 0 19 13 13 19 3 6 10 23 13 32 65 68 84
0 0 0 0 0 0 0 0 0 0 0 0 0 0 0 0 0 3 0 6 16 32 35 39 35 19 26 16 13 13 13 10 3 19 13 16 6 19 19 10 39 52 65
0 0 0 0 0 0 0 0 0 0 0 3 3 0 0 0 0 0 3 6 10 26 26 32 29 29 16 6 13 23 16 19 16 3 23 23 10 19 13 0 10 29 32
0 0 0 0 0 0 0 0 0 0 0 0 0 0 0 0 0 0 0 6 6 10 26 32 39 29 23 13 13 16 13 6 23 10 10 10 16 29 13 6 3 10 10
0 0 0 0 0 0 0 0 0 0 0 0 0 0 0 0 0 0 0 0 6 6 13 23 23 35 26 10 6 19 3 0 19 16 19 10 13 13 16 6 3 6 10
0 0 0 0 0 0 0 0 0 0 0 0 0 0 0 0 0 0 0 0 0 3 3 10 16 35 29 26 16 6 3 13 0 19 13 23 16 19 16 16 16 13 16
0 0 0 0 0 0 0 0 0 0 0 0 0 0 0 0 0 0 0 0 0 3 6 13 10 19 23 19 16 16 13 6 0 0 3 13 23 26 13 26 32 39 39

GEFSSE_con_cape1000_078.txt.gz
Probability
94 94 100 94 90 90 90 90 94 90 94 100 100 100 100 97 97 100 100 100 100 97 97 100 97 100 100 100 100 97 100 100 100 100 100 100 97 97 100 100 100 100 94
94 97 100 100 94 97 97 97 97 97 100 100 100 97 97 97 94 94 94 94 94 97 97 100 100 97 97 100 100 100 97 100 100 100 100 100 94 94 97 94 100 94 90
84 94 97 100 97 94 94 97 94 94 97 100 100 94 94 97 97 94 94 90 90 94 97 100 100 97 90 97 100 100 97 97 100 100 100 97 97 90 90 97 97 94 90
68 94 97 100 100 94 94 90 90 97 97 97 90 87 87 94 94 94 90 90 90 90 94 94 94 97 90 87 90 100 87 87 97 100 100 100 90 90 87 87 94 90 90
65 81 90 94 97 90 90 94 97 100 94 90 90 97 97 97 90 90 87 87 87 94 84 87 90 84 94 84 81 87 90 94 97 97 94 94 84 87 84 81 87 90 87
65 77 84 90 84 87 94 87 90 90 94 94 90 94 94 90 87 87 87 90 84 87 84 84 84 84 84 74 77 84 90 97 97 84 84 90 94 87 84 84 87 84 87
32 42 42 61 71 74 77 77 84 87 94 87 94 87 90 87 90 87 81 77 77 77 81 77 77 84 68 65 65 77 87 90 87 81 84 87 94 94 84 84 87 87 84
19 19 23 32 35 35 35 39 48 52 68 81 81 81 84 81 84 90 87 81 77 77 74 65 65 65 68 65 68 74 81 84 68 71 84 90 90 90 90 84 90 90 84
6 13 13 6 10 26 29 23 26 32 32 45 52 71 74 74 74 81 87 84 77 77 77 71 65 61 55 58 61 71 77 90 74 68 68 84 94 87 94 90 84 81 87
0 0 3 0 0 0 13 13 16 16 16 35 39 48 55 58 58 68 81 87 84 77 84 77 68 65 61 71 65 68 81 87 35 32 65 90 94 84 94 90 87 81 84
0 0 0 0 0 0 0 3 16 16 19 26 23 29 35 42 48 58 55 71 74 81 77 77 77 74 74 84 90 94 87 39 13 42 65 90 90 84 87 87 87 90 90
0 0 0 0 0 0 0 0 0 0 6 10 16 16 19 23 26 29 29 55 55 65 68 74 84 77 74 52 61 94 45 23 16 35 74 97 94 87 77 87 94 94 87
0 0 0 0 0 0 0 0 3 0 0 0 6 10 10 6 13 10 13 32 32 39 39 48 68 52 39 29 23 42 23 6 13 35 81 100 97 84 74 87 90 97 84
0 0 0 0 0 0 0 0 0 0 3 3 0 6 10 6 6 6 6 10 23 19 29 29 32 26 19 13 13 10 16 16 10 39 65 100 97 90 77 87 87 90 90
0 0 0 0 0 0 0 0 0 0 0 0 0 0 3 10 10 6 3 3 6 10 16 16 13 13 10 3 3 3 3 3 3 39 52 100 100 94 77 77 90 87 87
0 0 0 0 0 0 0 0 0 0 0 0 0 0 3 0 0 0 3 3 6 6 13 10 10 3 10 10 3 0 3 0 0 23 19 84 97 94 97 87 90 84 90
0 0 0 0 0 0 0 0 0 0 0 0 0 0 0 0 3 0 3 0 6 6 3 3 6 3 6 6 6 0 0 3 0 6 29 16 35 97 97 97 94 90 97
0 0 0 0 0 0 0 0 0 0 0 0 0 0 0 0 3 0 0 0 3 6 3 0 0 6 0 0 0 0 0 0 0 0 16 26 10 13 87 97 97 90 94
0 0 0 0 0 0 0 0 0 0 0 0 0 0 0 0 0 0 3 0 0 0 3 0 0 0 0 0 0 0 3 0 0 0 3 3 6 6 10 77 97 97 97
0 0 0 0 0 0 0 0 0 0 0 0 0 0 0 0 0 0 0 0 0 0 3 0 0 0 0 0 0 0 0 0 0 0 0 0 3 3 3 10 48 71 94
0 0 0 0 0 0 0 0 0 0 0 0 0 0 0 0 0 0 0 0 0 0 3 3 0 0 0 0 0 0 0 0 0 0 0 0 0 0 0 6 0 6 48
0 0 0 0 0 0 0 0 0 0 0 0 0 0 0 0 0 0 3 0 0 0 0 0 0 0 0 0 0 0 0 0 0 0 0 0 0 0 0 6 3 3 0
0 0 0 0 0 0 0 0 0 0 0 0 0 0 0 0 0 0 0 0 0 0 0 0 0 0 0 0 0 0 0 0 0 0 0 0 0 0 3 0 3 3 0
0 0 0 0 0 0 0 0 0 0 0 0 0 0 0 0 0 0 0 0 0 0 0 0 0 0 0 0 0 0 0 0 0 0 0 0 0 0 0 0 0 0 0
0 0 0 0 0 0 0 0 0 0 0 0 0 0 0 0 0 0 0 0 0 0 0 0 0 0 0 0 0 0 0 0 0 0 0 0 0 0 0 0 0 0 0
0 0 0 0 0 0 0 0 0 0 0 0 0 0 0 0 0 0 0 0 0 0 0 0 0 0 0 0 0 0 0 0 0 0 0 0 0 0 0 0 0 3 0

GEFSSE_con_cape1000_084.txt.gz
Probability
58 77 97 97 97 97 97 97 97 100 100 100 100 100 100 100 100 100 100 100 100 100 100 100 100 97 97 100 100 97 100 100 100 100 100 100 94 97 97 100 97 100 97
68 81 97 97 97 97 100 100 100 100 100 100 100 100 97 100 100 100 97 94 100 100 100 97 97 87 94 94 97 100 100 94 100 100 97 97 90 90 90 97 90 97 97
71 84 97 100 100 100 100 97 97 97 97 97 100 97 97 97 94 94 90 90 90 90 87 90 87 84 87 94 90 97 100 97 97 100 97 90 90 90 94 90 94 87 94
77 90 94 97 100 100 100 94 97 97 97 97 100 100 100 97 94 87 87 84 84 87 84 84 81 77 77 84 84 84 87 94 94 97 81 87 87 90 90 90 81 87 90
71 87 90 90 97 94 97 100 100 94 97 97 100 100 100 97 97 94 90 84 81 84 81 84 84 81 74 81 74 77 87 94 94 84 77 68 74 90 87 81 84 84 94
58 68 87 94 90 90 87 94 97 97 100 100 100 100 100 97 97 97 90 84 77 77 77 81 84 77 74 77 71 74 81 90 94 65 65 65 71 90 84 81 84 90 90
35 48 68 74 81 81 81 81 94 97 94 100 97 100 100 97 97 94 87 87 81 74 74 68 68 65 71 71 71 71 84 87 68 61 58 58 71 90 81 84 87 81 87
19 29 39 48 52 55 55 58 68 65 74 77 87 94 90 90 90 84 87 90 84 81 74 71 71 61 55 65 71 74 84 90 58 45 58 55 77 90 81 81 87 87 90
3 6 10 13 19 32 45 39 48 45 45 55 65 61 74 84 77 77 81 84 90 87 81 77 71 68 68 68 74 74 84 90 68 35 42 52 84 87 84 84 84 90 87
0 3 3 0 3 0 0 19 29 29 29 32 42 45 55 52 65 71 68 74 74 87 87 77 81 74 74 74 77 81 97 97 45 23 23 48 87 87 90 87 84 87 90
0 0 0 0 0 0 0 0 3 10 16 13 13 16 16 13 19 26 35 58 71 74 77 84 77 74 84 81 84 87 94 65 26 16 16 65 90 90 94 94 90 87 90
0 0 0 0 0 0 0 0 0 0 0 0 0 0 3 0 3 13 19 42 42 48 58 68 65 81 74 52 39 71 48 42 19 6 16 74 90 90 87 94 97 94 90
0 0 0 0 0 0 0 0 0 0 0 0 0 0 0 0 0 3 0 6 6 23 23 26 39 35 35 26 13 16 19 26 13 3 10 87 90 87 87 90 97 97 97
0 0 0 0 0 0 0 0 0 0 0 0 0 0 0 0 0 0 0 0 3 3 3 6 6 10 13 6 6 0 0 6 6 0 3 87 87 87 90 94 97 97 97
0 0 0 0 0 0 0 0 0 0 0 0 0 0 0 0 0 0 0 0 0 3 3 0 0 3 3 3 0 0 0 0 3 0 6 81 90 94 94 97 97 97 97
0 0 0 0 0 0 0 0 0 0 0 0 0 0 0 0 0 0 0 0 0 0 0 0 0 0 0 0 0 0 0 0 0 3 0 42 90 97 97 94 97 97 100
0 0 0 0 0 0 0 0 0 0 0 0 0 0 0 0 0 0 0 0 0 0 0 0 0 0 0 0 0 0 0 0 0 0 0 10 35 90 97 97 97 100 100
0 0 0 0 0 0 0 0 0 0 0 0 0 0 0 0 0 0 0 0 0 0 0 0 0 0 0 0 0 0 0 0 0 0 0 0 6 32 77 97 100 100 100
0 0 0 0 0 0 0 0 0 0 0 0 0 0 0 0 0 0 0 0 0 0 0 0 0 0 0 0 0 0 0 0 0 0 0 0 6 10 26 58 100 100 100
0 0 0 0 0 0 0 0 0 0 0 0 0 0 0 0 0 0 0 0 0 0 0 0 0 0 0 0 0 0 0 0 0 0 0 0 0 3 13 35 58 84 100
0 0 0 0 0 0 0 0 0 0 0 0 0 0 0 0 0 0 0 0 0 0 0 0 0 0 0 0 0 0 0 0 0 0 0 0 0 0 0 13 23 23 58
0 0 0 0 0 0 0 0 0 0 0 0 0 0 0 0 0 0 0 0 0 0 0 0 0 0 0 0 0 0 0 0 0 0 0 0 0 0 0 3 13 10 16
0 0 0 0 0 0 0 0 0 0 0 0 0 0 0 0 0 0 0 0 0 0 0 0 0 0 0 0 0 0 0 0 0 0 0 0 0 0 0 0 3 3 10
0 0 0 0 0 0 0 0 0 0 0 0 0 0 0 0 0 0 0 0 0 0 0 0 0 0 0 0 0 0 0 0 0 0 0 0 0 0 0 0 0 0 0
0 0 0 0 0 0 0 0 0 0 0 0 0 0 0 0 0 0 0 0 0 0 0 0 0 0 0 0 0 0 0 0 0 0 0 0 0 0 0 0 0 0 0
0 0 0 0 0 0 0 0 0 0 0 0 0 0 0 0 0 0 0 0 0 0 0 0 0 0 0 0 0 0 0 0 0 0 0 0 0 0 0 0 0 0 0

GEFSSE_con_cape1000_090.txt.gz
Probability
3 23 87 94 94 100 94 94 97 97 97 100 100 100 100 100 100 100 100 100 100 100 100 97 87 94 97 100 100 97 97 97 100 100 100 97 90 94 94 97 94 94 90
13 55 84 84 90 90 97 97 94 97 97 97 100 100 97 100 100 97 100 100 100 100 97 90 87 87 94 90 90 97 94 94 97 100 97 90 94 90 94 94 94 94 94
45 61 74 84 94 90 94 90 87 90 94 97 100 100 100 97 97 94 90 97 97 94 87 90 84 77 74 87 87 87 94 90 94 97 90 81 87 90 90 94 90 90 90
48 61 71 84 81 84 84 87 84 94 97 94 94 97 100 97 94 94 94 97 94 87 84 81 84 77 74 71 81 84 84 87 84 87 74 71 77 90 87 87 90 87 90
48 45 52 68 71 74 77 77 74 87 81 87 87 87 94 94 90 94 94 94 90 77 84 81 84 77 74 71 74 74 77 84 77 71 61 55 52 84 87 87 87 87 87
35 39 45 58 58 61 58 61 55 68 65 74 81 84 90 90 94 90 94 94 94 87 84 84 77 74 74 71 74 65 74 74 68 35 45 52 52 77 84 84 90 90 94
32 35 32 48 48 42 42 39 45 42 45 52 55 68 77 74 94 97 94 94 97 97 84 87 77 74 65 68 68 68 68 81 45 29 32 48 58 77 84 81 84 77 84
6 13 16 32 32 32 35 35 32 29 29 32 35 45 45 58 65 71 81 77 87 97 94 90 94 74 68 58 61 65 68 74 58 29 29 32 61 90 81 87 84 84 87
0 0 0 0 3 16 26 19 29 29 26 26 23 29 35 35 39 52 55 55 65 74 87 90 97 90 74 68 61 61 65 84 39 16 26 26 58 84 87 81 81 81 84
0 3 0 0 0 0 0 3 3 10 10 23 26 29 23 23 19 23 26 42 55 61 68 71 87 94 84 77 74 61 71 65 29 19 6 19 68 81 87 81 84 87 87
0 0 0 0 0 0 0 0 0 0 0 0 0 3 3 0 0 0 3 16 32 39 35 45 68 74 77 81 84 74 61 52 23 10 6 23 71 84 87 87 84 94 90
0 0 0 0 0 0 0 0 0 0 0 0 0 0 0 0 0 0 0 3 10 32 23 23 39 35 45 39 42 52 32 32 13 6 6 45 77 81 81 87 90 94 94
0 0 0 0 0 0 0 0 0 0 0 0 0 0 0 0 0 0 0 0 0 3 3 3 19 13 13 6 6 6 6 6 3 3 6 55 74 77 74 77 94 97 94
0 0 0 0 0 0 0 0 0 0 0 0 0 0 0 0 0 0 0 0 0 0 3 3 3 3 6 6 6 0 0 0 0 0 0 35 81 77 81 77 90 94 100
0 0 0 0 0 0 0 0 0 0 0 0 0 0 0 0 0 0 0 0 0 0 0 0 0 0 3 3 3 3 0 0 0 0 0 16 81 84 74 81 77 94 100
0 0 0 0 0 0 0 0 0 0 0 0 0 0 0 0 0 0 0 0 0 0 0 0 0 0 0 0 3 3 0 0 0 0 0 3 58 87 87 81 84 84 97
0 0 0 0 0 0 0 0 0 0 0 0 0 0 0 0 0 0 0 0 0 0 0 0 0 0 0 0 0 0 0 0 0 0 0 3 10 42 87 90 84 90 97
0 0 0 0 0 0 0 0 0 0 0 0 0 0 0 0 0 0 0 0 0 0 0 0 0 0 0 0 0 0 0 0 0 0 0 0 3 10 42 77 90 94 94
0 0 0 0 0 0 0 0 0 0 0 0 0 0 0 0 0 0 0 0 0 0 0 0 0 0 0 0 0 0 0 0 0 0 0 0 0 0 6 29 74 84 94
0 0 0 0 0 0 0 0 0 0 0 0 0 0 0 0 0 0 0 0 0 0 0 0 0 0 0 0 0 0 0 0 0 0 0 0 0 0 3 6 29 39 87
0 0 0 0 0 0 0 0 0 0 0 0 0 0 0 0 0 0 0 0 0 0 0 0 0 0 0 0 0 0 0 0 0 0 0 0 0 0 0 3 6 23 32
0 0 0 0 0 0 0 0 0 0 0 0 0 0 0 0 0 0 0 0 0 0 0 0 0 0 0 0 0 0 0 0 0 0 0 0 0 0 3 6 6 6 6
0 0 0 0 0 0 0 0 0 0 0 0 0 0 0 0 0 0 0 0 0 0 0 0 0 0 0 0 0 0 0 0 0 0 0 0 0 0 0 0 3 3 3
0 0 0 0 0 0 0 0 0 0 0 0 0 0 0 0 0 0 0 0 0 0 0 0 0 0 0 0 0 0 0 0 0 0 0 0 0 0 0 0 0 0 3
0 0 0 0 0 0 0 0 0 0 0 0 0 0 0 0 0 0 0 0 0 0 0 0 0 0 0 0 0 0 0 0 0 0 0 0 0 0 0 0 0 0 0
0 0 0 0 0 0 0 0 0 0 0 0 0 0 0 0 0 0 0 0 0 0 0 0 0 0 0 0 0 0 0 0 0 0 0 0 0 0 0 0 0 0 0

GEFSSE_con_cape1000_096.txt.gz
Probability
19 39 81 81 77 81 77 74 77 77 90 97 97 100 100 97 100 100 97 100 100 100 97 94 90 90 94 94 97 94 94 94 97 94 97 90 94 90 87 90 87 87 81
23 29 74 68 74 71 74 71 71 71 74 81 90 94 90 87 90 94 97 94 97 97 90 90 84 87 90 87 84 97 90 94 97 90 94 94 94 87 90 84 90 90 87
23 29 52 65 65 58 55 58 61 74 68 74 71 77 81 87 84 87 87 94 97 97 97 90 84 81 77 77 84 87 87 87 87 84 94 97 94 94 90 84 87 90 81
26 32 35 55 52 48 48 45 39 45 55 61 71 68 74 84 87 84 90 81 87 90 90 90 77 71 74 71 74 87 87 87 81 81 81 81 87 90 81 90 84 90 81
26 35 35 42 52 39 29 29 32 32 48 58 58 52 61 71 81 84 84 84 87 84 87 90 81 77 77 74 68 77 81 81 74 71 74 87 90 90 90 87 90 87 84
23 13 13 32 29 23 29 23 23 19 19 35 39 35 48 52 65 71 77 74 77 81 71 74 74 71 74 71 71 68 71 74 74 71 71 81 81 90 87 90 84 84 84
13 13 13 32 26 29 29 26 19 16 13 16 16 23 39 39 42 52 55 58 61 65 68 68 74 68 65 68 65 68 65 58 58 74 71 71 77 77 77 90 81 84 87
10 10 16 23 23 16 16 19 16 19 16 19 19 19 16 16 26 26 39 45 45 45 55 52 58 68 65 58 55 52 61 65 39 35 65 71 74 81 84 81 90 81 87
10 10 10 6 10 10 6 6 3 6 3 3 6 16 19 23 23 19 23 35 32 32 42 39 42 48 55 65 48 52 58 58 39 61 32 58 74 74 81 90 81 81 87
3 3 0 0 0 0 3 0 0 0 3 3 3 3 10 6 3 10 13 10 19 32 29 42 35 35 35 48 52 58 52 48 35 29 35 45 55 65 87 90 84 87 87
0 0 0 0 0 0 0 0 0 0 0 0 0 0 0 0 3 10 3 0 10 6 26 29 32 29 32 45 45 48 52 45 32 35 32 39 48 71 84 87 87 87 84
0 0 0 0 0 0 0 0 0 0 0 0 0 0 0 0 3 0 0 0 0 3 13 19 29 23 19 26 29 39 32 29 39 32 42 52 61 74 71 84 87 84 87
0 0 0 0 0 0 0 0 0 0 0 0 0 0 0 0 0 3 6 10 0 0 3 16 32 19 13 26 29 16 13 19 26 19 19 61 61 74 68 74 84 87 90
0 0 0 0 0 0 0 0 0 0 0 0 0 0 0 0 0 0 0 3 6 3 3 10 26 3 6 13 6 6 3 16 16 29 48 48 65 68 71 61 77 87 87
0 0 0 0 0 0 0 0 0 0 0 0 0 0 0 0 0 0 0 0 0 3 3 6 10 13 3 3 6 6 3 3 3 13 32 42 45 74 68 71 65 77 84
0 0 0 0 0 0 0 0 0 0 0 0 0 0 0 0 0 0 0 0 0 3 3 3 3 16 10 13 10 10 6 6 10 3 16 32 52 65 71 71 65 74 84
0 0 0 0 0 0 0 0 0 0 0 0 0 0 0 0 0 0 0 0 0 0 0 3 0 3 0 3 3 3 6 10 13 6 10 26 32 42 74 71 77 81 77
0 0 0 0 0 0 0 0 0 0 0 0 0 0 0 0 0 0 3 0 0 0 3 3 0 6 0 0 6 6 3 16 6 3 6 19 35 19 39 74 77 84 77
0 0 0 0 0 0 0 0 0 0 0 0 0 0 0 0 0 0 0 0 3 3 3 6 6 10 6 3 3 3 3 6 10 10 3 0 10 32 26 61 65 77 84
0 0 0 0 0 0 0 0 0 0 0 0 0 0 0 0 0 0 0 3 3 3 6 6 6 6 6 3 0 0 3 3 6 10 6 3 13 13 6 10 52 52 65
0 0 0 0 0 0 0 0 0 0 0 0 0 0 0 0 0 0 3 0 3 3 6 6 6 0 0 0 3 3 3 0 0 16 13 6 3 6 16 19 35 45 61
0 0 0 0 0 0 0 0 0 0 0 0 0 0 0 0 0 0 3 3 3 10 6 6 6 0 0 0 0 0 0 3 0 0 10 16 0 23 32 0 10 19 29
0 0 0 0 0 0 0 0 0 0 0 0 0 0 0 0 0 0 0 3 3 3 10 6 6 3 3 0 0 0 0 0 3 0 0 0 10 19 26 6 3 16 16
0 0 0 0 0 0 0 0 0 0 0 0 0 0 0 0 0 0 0 0 3 3 3 3 3 6 3 0 0 0 0 3 0 0 0 3 3 6 6 0 0 13 23
0 0 0 0 0 0 0 0 0 0 0 0 0 0 0 0 0 0 0 0 0 0 3 0 0 3 3 0 0 0 0 3 0 0 0 0 3 6 10 6 16 23 19
0 0 0 0 0 0 0 0 0 0 0 0 0 0 0 0 0 0 0 0 0 0 0 3 3 3 0 0 3 0 0 0 3 3 0 0 0 3 3 10 13 26 29

GEFSSE_con_cape1000_102.txt.gz
Probability
61 68 90 87 74 71 74 68 68 61 71 77 71 74 77 87 84 84 84 97 90 87 84 81 84 84 90 90 90 94 94 90 100 94 90 90 90 84 81 84 90 90 90
45 61 84 77 68 65 68 71 65 58 48 61 68 68 74 81 84 90 77 81 84 84 81 90 74 77 74 81 87 90 94 84 87 97 94 94 87 84 77 84 87 84 81
42 45 68 74 68 58 55 61 61 58 48 52 55 58 61 68 81 77 74 71 74 74 68 74 77 71 74 68 71 84 77 81 87 97 97 97 97 84 84 87 94 90 81
29 45 42 65 68 58 42 39 35 42 42 39 42 39 42 55 61 58 65 65 68 77 68 74 71 77 61 65 71 68 77 77 87 94 90 94 90 87 90 81 84 74 74
29 29 39 45 45 32 23 29 16 16 16 26 39 26 29 42 55 58 48 58 61 65 61 61 71 68 71 71 61 65 65 65 84 90 81 81 81 90 87 77 77 81 77
19 16 26 29 35 26 23 16 19 16 13 10 16 23 19 32 39 35 48 45 48 61 52 55 58 48 52 58 58 52 55 65 77 68 77 81 84 87 81 84 74 84 81
13 16 13 29 19 16 19 16 10 13 13 6 10 16 16 19 23 23 29 39 42 39 39 42 52 52 52 58 61 58 61 61 48 48 71 87 94 90 74 74 77 77 81
13 13 10 29 19 16 6 6 6 0 0 3 6 6 13 19 23 26 23 29 35 32 35 42 45 39 45 48 55 45 58 68 32 23 48 77 90 84 71 71 74 81 74
10 6 6 6 10 13 13 6 3 3 3 3 3 3 0 6 29 29 23 26 19 23 29 39 42 35 48 48 35 42 48 71 45 23 32 71 97 81 65 71 77 84 81
6 3 6 6 3 0 0 0 0 0 0 0 0 0 3 6 10 19 19 29 29 23 29 39 39 39 48 45 42 32 55 48 19 13 26 74 97 71 65 77 90 84 87
3 3 3 0 0 0 0 0 0 0 0 0 0 3 10 0 3 10 16 19 16 23 23 19 35 42 48 35 42 42 45 23 16 16 39 90 87 65 58 77 94 87 84
0 0 0 0 0 0 0 0 3 0 3 3 0 0 0 0 0 0 10 16 6 19 23 23 26 32 32 23 26 45 26 19 10 10 52 90 77 55 58 71 87 84 81
0 0 0 0 0 0 0 0 0 0 0 0 0 0 0 0 0 0 0 6 6 10 3 3 13 10 10 3 6 10 10 10 6 3 45 90 77 58 45 71 84 84 87
0 0 0 0 0 0 0 0 0 0 0 0 0 0 0 0 0 0 3 0 3 3 3 0 0 6 6 3 3 3 0 6 0 6 39 87 77 61 61 68 84 90 90
0 0 0 0 0 0 0 0 0 0 0 0 0 0 0 0 0 0 0 0 0 3 3 3 3 3 3 0 0 3 3 0 3 3 26 77 84 74 71 65 68 90 94
0 0 0 0 0 0 0 0 0 0 0 0 0 0 0 0 0 0 0 0 0 0 0 3 3 0 3 3 0 0 3 3 0 6 10 55 81 90 84 71 81 90 87
0 0 0 0 0 0 0 0 0 0 0 0 0 0 0 0 0 0 0 0 0 0 0 0 0 0 0 3 0 0 0 0 0 0 13 16 23 81 81 81 77 84 87
0 0 0 0 0 0 0 0 0 0 0 0 0 0 0 0 0 0 0 0 0 0 0 0 0 0 0 3 0 0 0 0 3 0 6 10 13 10 52 84 81 87 90
0 0 0 0 0 0 0 0 0 0 0 0 0 0 0 0 0 0 3 0 0 0 0 0 0 0 0 0 0 0 0 0 3 0 0 0 10 16 10 32 77 87 87
0 0 0 0 0 0 0 0 0 0 0 0 0 0 0 0 0 3 3 3 0 0 0 0 0 0 0 0 0 0 0 0 0 0 0 0 0 3 6 6 16 39 84
0 0 0 0 0 0 0 0 0 0 0 0 0 0 0 0 3 0 0 0 0 0 0 0 0 3 3 0 0 0 0 0 0 0 0 0 0 0 0 0 0 6 16
0 0 0 0 0 0 0 0 0 0 0 0 0 0 0 0 0 0 0 0 0 0 6 3 3 0 0 0 0 0 0 0 0 0 0 0 0 0 0 0 0 0 0
0 0 0 0 0 0 0 0 0 0 0 0 0 0 0 0 0 0 0 0 3 3 3 3 3 0 0 0 0 0 0 0 0 0 0 0 0 0 0 0 0 3 0
0 0 0 0 0 0 0 0 0 0 0 0 0 0 0 0 0 0 0 0 3 3 3 0 0 0 0 0 0 0 0 0 0 0 0 0 0 0 0 0 0 0 0
0 0 0 0 0 0 0 0 0 0 0 0 0 0 0 0 0 0 0 0 0 3 3 3 0 0 0 0 0 0 0 0 0 0 0 0 0 0 3 3 0 0 3
0 0 0 0 0 0 0 0 0 0 0 0 0 0 0 0 0 0 0 0 0 0 3 0 3 0 3 3 0 0 0 0 0 0 0 0 0 0 0 3 0 0 3

GEFSSE_con_cape1000_108.txt.gz
Probability
16 45 84 87 90 90 81 77 77 84 81 77 84 84 87 87 90 90 87 84 81 81 84 81 81 81 81 84 90 84 90 81 87 87 87 81 81 81 84 90 87 84 81
26 55 84 81 81 74 81 74 74 74 74 65 71 71 87 84 84 77 87 81 77 77 77 77 77 71 74 77 68 74 71 68 71 81 90 84 74 81 87 94 87 84 84
42 68 71 77 84 74 65 65 58 52 58 55 58 65 65 68 68 68 74 77 77 74 77 74 74 65 68 65 58 61 65 68 77 84 87 65 65 84 81 90 87 87 87
35 52 52 61 68 61 61 58 52 42 39 32 45 42 48 45 42 52 58 58 68 68 61 77 74 74 74 65 61 58 58 71 74 77 45 71 55 84 84 87 87 87 87
26 35 58 61 55 45 32 23 23 23 26 29 29 29 32 32 35 35 35 52 55 58 61 61 61 58 58 65 58 58 52 61 68 45 29 32 39 87 90 87 84 87 90
19 26 35 48 42 29 26 23 19 19 16 19 19 19 16 13 32 29 29 35 65 61 61 55 52 52 52 48 52 55 52 55 45 23 16 26 45 84 94 90 90 84 87
10 19 29 42 32 23 19 16 19 10 13 3 6 13 13 10 10 16 16 35 42 42 45 45 55 39 35 39 45 48 45 52 32 16 19 32 52 94 94 94 90 90 84
6 10 13 29 26 26 16 13 13 3 0 0 3 3 6 10 13 10 10 16 19 35 42 39 48 35 29 35 45 45 45 48 19 13 13 19 58 90 87 94 87 90 87
6 10 10 13 13 23 16 6 6 3 3 3 0 0 3 6 10 10 16 19 23 29 39 35 32 32 32 42 52 48 55 65 19 6 10 16 74 90 90 94 90 90 90
0 3 0 3 6 6 3 10 3 0 3 3 3 6 6 6 0 6 6 19 23 19 19 32 45 45 35 45 52 48 52 48 19 10 6 19 84 87 97 94 94 94 90
0 0 0 0 0 0 0 0 0 3 3 3 3 3 3 0 0 0 0 13 23 26 19 23 32 45 42 35 29 45 42 13 10 6 3 39 84 90 94 100 94 94 90
0 0 0 0 0 0 0 0 0 0 0 0 0 0 0 0 0 0 0 0 13 16 19 16 23 35 23 6 16 19 10 6 3 3 3 65 90 87 94 100 100 90 94
0 0 0 0 0 0 0 0 0 0 0 0 0 0 0 0 0 0 0 0 0 0 0 0 3 3 0 6 3 3 3 3 0 0 3 65 87 90 87 94 100 100 90
0 0 0 0 0 0 0 0 0 0 0 0 0 0 0 0 0 0 0 0 0 0 0 0 0 0 0 0 0 0 0 0 0 0 3 52 68 87 90 84 94 97 94
0 0 0 0 0 0 0 0 0 0 0 0 0 0 0 0 0 0 0 0 0 0 0 0 0 0 0 0 0 0 0 0 0 0 3 35 65 81 84 77 81 87 94
0 0 0 0 0 0 0 0 0 0 0 0 0 0 0 0 0 0 0 0 0 0 0 0 0 0 0 0 0 0 0 0 0 0 0 19 61 74 84 74 81 84 90
0 0 0 0 0 0 0 0 0 0 0 0 0 0 0 0 0 0 0 0 0 0 0 0 0 0 0 0 0 0 0 0 0 0 3 3 10 52 74 77 84 90 94
0 0 0 0 0 0 0 0 0 0 0 0 0 0 0 0 0 0 0 0 0 0 0 0 0 0 0 0 0 0 0 0 0 0 0 3 3 13 45 68 87 84 90
0 0 0 0 0 0 0 0 0 0 0 0 0 0 0 0 0 0 0 0 0 0 0 0 0 0 0 0 0 0 0 0 0 0 0 0 0 0 6 29 61 77 87
0 0 0 0 0 0 0 0 0 0 0 0 0 0 0 0 0 0 0 0 0 0 0 0 0 0 0 0 0 0 0 0 0 0 0 0 0 0 3 6 13 35 74
0 0 0 0 0 0 0 0 0 0 0 0 0 0 0 0 0 0 0 0 0 0 0 0 0 0 0 0 0 0 0 0 0 0 0 0 0 0 0 3 0 3 23
0 0 0 0 0 0 0 0 0 0 0 0 0 0 0 0 0 0 0 0 0 0 0 0 0 0 0 0 0 0 0 0 0 0 0 0 0 0 0 0 0 0 0
0 0 0 0 0 0 0 0 0 0 0 0 0 0 0 0 0 0 0 0 0 0 0 0 0 0 0 0 0 0 0 0 0 0 0 0 0 0 0 0 0 0 0
0 0 0 0 0 0 0 0 0 0 0 0 0 0 0 0 0 0 0 0 0 0 0 0 0 0 0 0 0 0 0 0 0 0 0 0 0 0 0 0 0 0 0
0 0 0 0 0 0 0 0 0 0 0 0 0 0 0 0 0 0 0 0 0 0 0 0 0 0 0 0 0 0 0 0 0 0 0 0 0 0 0 0 0 0 0
0 0 0 0 0 0 0 0 0 0 0 0 0 0 0 0 0 0 0 0 0 0 0 0 0 0 0 0 0 0 0 0 0 0 0 0 0 0 0 0 0 0 0

GEFSSE_con_cape1000_114.txt.gz
Probability
0 16 71 71 61 71 74 74 74 81 77 84 84 77 77 74 81 81 84 81 90 87 77 77 81 84 74 74 81 77 81 77 84 90 81 71 81 74 81 77 71 68 68
3 29 68 71 68 65 74 74 74 68 68 65 74 74 77 74 77 77 77 77 81 77 81 81 81 81 84 74 74 71 71 68 77 90 97 81 77 77 68 74 77 71 71
16 48 58 68 65 61 55 55 55 58 61 48 48 58 68 61 61 71 68 74 81 81 81 81 77 74 77 71 68 71 71 68 81 81 84 55 55 81 74 77 77 68 77
26 45 48 55 55 52 55 48 42 42 29 32 32 39 52 48 48 45 45 52 65 68 74 74 81 74 74 71 74 77 71 74 74 68 35 42 52 74 74 81 77 81 81
10 26 39 48 45 45 35 23 26 19 16 16 16 26 29 26 32 35 45 45 48 68 68 74 77 71 77 87 77 74 74 77 74 39 29 29 19 71 77 81 81 81 84
10 29 39 45 42 23 16 16 16 16 16 16 16 19 16 23 19 19 32 39 42 48 68 68 65 61 71 71 74 71 68 65 45 13 13 19 16 65 84 84 87 84 81
6 19 32 29 26 13 16 16 16 10 10 6 10 10 6 13 16 13 13 13 29 45 55 58 65 61 52 55 71 65 55 58 16 10 10 16 26 74 84 84 87 84 81
6 13 19 23 19 16 13 13 10 10 3 0 0 0 3 13 13 10 13 19 23 23 35 52 52 52 45 42 42 48 52 45 23 10 3 10 29 81 87 77 81 84 74
3 3 6 10 10 10 13 10 6 0 0 0 0 3 3 6 10 6 16 10 10 19 19 29 39 42 48 45 39 39 45 48 19 6 10 10 32 71 74 84 90 84 81
3 3 3 3 6 6 6 3 3 3 0 0 0 0 3 0 3 3 3 13 10 13 16 23 29 35 39 45 35 35 45 39 10 6 6 10 39 74 65 84 90 90 81
3 3 3 0 0 0 0 0 0 0 0 0 0 0 0 0 0 0 0 3 6 13 10 10 16 19 26 32 29 32 23 13 10 3 3 13 58 77 71 81 94 90 87
3 0 0 0 0 0 0 0 0 0 0 0 0 0 0 0 0 0 0 0 0 3 6 13 13 13 13 6 10 19 19 13 3 0 0 26 68 68 74 84 94 87 90
3 0 0 0 0 0 0 0 0 0 0 0 0 0 0 0 0 0 0 0 0 0 0 0 0 0 0 0 0 0 6 3 3 3 0 26 65 61 71 77 84 90 87
3 0 0 0 0 0 0 0 0 0 0 0 0 0 0 0 0 0 0 0 0 0 0 0 0 0 0 0 0 0 0 0 3 0 0 23 52 55 58 74 84 87 94
0 0 0 0 0 0 0 0 0 0 0 0 0 0 0 0 0 0 0 0 0 0 0 0 0 0 0 0 0 0 0 0 0 0 0 3 35 65 61 65 65 87 90
0 0 0 0 0 0 0 0 0 0 0 0 0 0 0 0 0 0 0 0 0 0 0 0 0 0 0 0 0 0 0 0 0 0 0 3 13 48 68 58 58 68 87
0 0 0 0 0 0 0 0 0 0 0 0 0 0 0 0 0 0 0 0 0 0 0 0 0 0 0 0 0 0 0 0 0 0 0 0 3 16 42 55 71 65 68
0 0 0 0 0 0 0 0 0 0 0 0 0 0 0 0 0 0 0 0 0 0 0 0 0 0 0 0 0 0 0 0 0 0 0 0 0 3 13 32 65 65 68
0 0 0 0 0 0 0 0 0 0 0 0 0 0 0 0 0 0 0 0 0 0 0 0 0 0 0 0 0 0 0 0 0 0 0 0 0 0 3 6 23 39 68
0 0 0 0 0 0 0 0 0 0 0 0 0 0 0 0 0 0 0 0 0 0 0 0 0 0 0 0 0 0 0 0 0 0 0 0 0 0 3 3 6 16 42
0 0 0 0 0 0 0 0 0 0 0 0 0 0 0 0 0 0 0 0 0 0 0 0 0 0 0 0 0 0 0 0 0 0 0 0 0 0 0 0 0 0 6
0 0 0 0 0 0 0 0 0 0 0 0 0 0 0 0 0 0 0 0 0 0 0 0 0 0 0 0 0 0 0 0 0 0 0 0 0 0 0 0 0 0 0
0 0 0 0 0 0 0 0 0 0 0 0 0 0 0 0 0 0 0 0 0 0 0 0 0 0 0 0 0 0 0 0 0 0 0 0 0 0 0 0 0 0 0
0 0 0 0 0 0 0 0 0 0 0 0 0 0 0 0 0 0 0 0 0 0 0 0 0 0 0 0 0 0 0 0 0 0 0 0 0 0 0 0 0 0 0
0 0 0 0 0 0 0 0 0 0 0 0 0 0 0 0 0 0 0 0 0 0 0 0 0 0 0 0 0 0 0 0 0 0 0 0 0 0 0 0 0 0 0
0 0 0 0 0 0 0 0 0 0 0 0 0 0 0 0 0 0 0 0 0 0 0 0 0 0 0 0 0 0 0 0 0 0 0 0 0 0 0 0 0 0 0

GEFSSE_con_cape1000_120.txt.gz
Probability
16 29 65 68 71 68 65 65 71 71 68 71 77 71 71 68 71 71 71 74 77 74 74 74 77 81 74 68 77 77 77 84 84 94 81 81 84 84 84 71 71 65 81
13 29 65 58 52 58 65 65 58 58 61 55 58 61 61 61 61 61 61 61 71 71 77 77 74 84 81 74 71 71 77 81 87 81 87 81 71 71 81 81 74 87 71
16 26 42 48 42 48 52 52 55 55 52 48 48 48 52 45 45 45 55 61 74 77 81 81 77 81 84 81 71 77 74 77 81 77 87 81 68 68 71 77 77 77 65
6 23 23 45 42 42 42 45 42 39 32 29 32 35 35 39 39 42 39 52 58 65 65 65 65 77 81 77 77 74 77 74 84 81 77 71 74 74 74 74 81 77 71
10 19 29 42 42 39 39 32 32 16 16 19 19 19 26 26 19 26 35 35 42 45 55 61 58 55 65 71 74 74 71 68 68 74 74 77 90 81 71 77 81 77 71
10 13 19 39 32 32 23 19 19 16 16 13 13 13 13 13 16 19 19 19 35 39 42 55 52 55 52 61 68 68 61 61 61 55 65 74 74 87 74 87 71 71 71
6 13 13 26 23 16 19 16 16 3 3 6 6 6 3 3 6 13 13 10 16 32 35 45 55 45 48 55 55 58 65 58 45 55 58 58 74 71 81 77 74 71 77
3 6 10 23 19 13 13 10 6 6 6 3 0 0 0 0 0 3 13 13 16 19 29 29 35 45 42 45 42 48 48 52 26 23 35 55 65 65 74 68 71 71 74
3 3 6 10 10 6 3 3 3 3 0 0 0 0 0 0 0 3 13 10 10 10 19 19 26 32 39 32 32 39 52 39 48 48 32 42 48 65 74 65 65 65 71
3 3 3 3 0 0 0 0 3 0 0 0 0 0 0 0 6 3 6 10 10 10 16 16 13 23 29 29 29 26 35 42 39 35 26 35 39 55 61 65 65 61 61
3 3 3 3 3 0 0 0 0 0 0 0 0 0 0 0 0 3 3 3 3 13 13 13 13 13 23 19 29 26 29 32 35 39 23 35 42 48 65 61 58 55 65
3 3 3 3 3 3 0 0 0 0 0 0 0 0 0 0 0 0 0 0 0 0 0 6 13 13 10 19 19 23 26 29 29 32 26 23 29 55 65 61 58 58 65
3 3 3 3 3 3 3 0 0 0 0 0 0 0 0 0 0 0 0 0 0 0 0 0 6 13 6 10 6 13 19 23 23 23 19 23 29 39 55 52 68 58 58
3 3 3 3 3 3 0 0 0 0 0 0 0 0 0 0 0 0 0 0 0 0 0 0 3 3 6 6 0 6 10 19 23 32 32 19 19 42 48 52 71 68 61
3 3 3 3 3 0 0 0 0 0 0 0 0 0 0 0 0 0 0 0 0 0 0 0 0 3 3 3 3 3 6 16 13 19 23 23 23 29 35 45 58 71 61
3 3 3 3 3 0 0 0 0 0 0 0 0 0 0 0 0 0 0 0 0 0 0 0 0 0 0 0 0 0 0 3 13 19 19 26 23 35 39 48 58 61 65
3 3 3 3 0 0 0 0 0 0 0 0 0 0 0 0 0 0 0 0 0 0 0 0 0 3 0 0 3 3 3 6 13 16 13 16 23 16 48 42 58 58 58
3 3 3 3 0 0 0 0 0 0 0 0 0 0 0 0 0 0 0 0 0 0 0 0 0 6 3 0 0 0 3 6 6 10 10 19 19 23 32 29 52 61 45
3 3 3 3 0 0 0 0 0 0 0 0 0 0 0 0 0 0 0 0 0 0 0 0 0 3 3 0 0 3 3 6 6 3 3 6 10 26 32 13 19 45 42
3 3 3 3 0 0 0 0 0 0 0 0 0 0 0 0 0 0 0 0 0 0 0 0 3 6 6 10 0 0 6 6 13 10 6 10 13 13 16 16 29 23 29
10 6 6 6 0 0 0 0 0 0 0 0 0 0 0 0 0 0 0 0 0 0 0 3 6 3 6 3 6 6 3 6 6 13 13 16 6 10 16 13 29 19 29
6 10 6 6 0 0 0 0 0 0 0 0 0 0 0 0 0 0 0 0 0 0 0 3 10 13 3 0 6 10 6 6 6 0 19 6 3 16 13 0 3 19 13
6 6 6 6 0 0 0 0 0 0 0 0 0 0 0 0 0 0 0 0 0 0 3 3 10 10 10 3 3 3 3 0 0 3 3 3 13 16 13 10 6 3 6
6 6 6 6 3 3 3 0 0 0 0 0 0 0 0 0 0 0 0 0 0 0 3 0 3 10 13 13 6 3 3 3 3 0 0 3 6 0 3 3 3 10 13
3 3 3 0 0 0 0 0 0 0 0 0 0 0 0 0 0 0 0 0 0 0 0 3 0 6 13 10 6 6 3 6 0 0 0 3 3 6 3 3 16 26 19
0 3 3 0 0 0 0 0 0 0 0 0 0 0 0 0 0 0 0 0 0 0 0 3 3 0 6 6 16 10 10 10 6 0 0 6 6 6 3 10 10 16 19

GEFSSE_con_cape1000_126.txt.gz
Probability
45 45 77 77 81 74 81 71 68 65 61 61 65 65 71 71 68 68 65 65 71 71 71 77 77 81 81 77 81 84 90 87 81 87 81 81 81 84 81 87 87 84 81
39 42 74 81 81 74 77 71 68 58 58 58 55 52 65 55 55 55 55 65 65 71 74 74 81 81 84 84 87 84 77 81 81 87 90 81 87 81 77 84 87 81 81
32 29 61 61 68 65 58 52 52 48 48 48 42 42 39 39 32 35 42 48 55 61 58 68 61 74 74 84 87 81 74 77 81 94 94 94 84 84 74 77 81 84 74
29 29 32 61 58 55 48 45 52 42 42 39 29 32 26 23 26 32 32 35 42 55 52 52 61 61 65 71 77 77 84 77 81 81 74 74 81 74 81 81 74 77 77
29 26 32 45 45 45 45 39 29 19 23 23 23 23 13 10 19 23 23 23 29 29 39 45 48 58 52 61 61 61 65 77 81 74 58 74 65 77 77 84 81 74 58
16 16 23 39 32 35 26 26 23 16 13 13 13 13 13 10 10 6 16 16 19 19 23 32 45 32 39 42 61 58 61 71 65 52 61 68 74 81 77 87 77 77 68
6 10 16 29 26 23 19 23 10 10 10 10 10 6 3 6 6 3 6 19 19 19 26 29 35 35 35 42 45 48 55 65 48 42 55 68 84 77 74 87 77 71 71
6 6 13 19 19 13 13 3 3 3 3 3 0 0 0 0 0 3 3 10 19 19 19 16 26 32 29 35 39 39 52 61 35 26 42 61 77 74 77 71 77 68 68
6 6 6 10 10 13 6 3 3 3 3 0 0 0 0 0 0 3 0 6 13 13 16 13 13 26 29 26 32 35 52 61 23 23 19 52 77 71 68 74 71 74 71
3 3 6 3 6 3 3 3 3 3 0 0 0 0 3 3 3 3 3 3 3 10 13 13 10 13 19 26 32 42 45 48 16 16 23 48 84 61 61 65 61 71 74
3 3 3 3 0 0 0 3 3 3 3 0 0 3 3 3 0 0 3 3 3 3 6 10 10 10 19 29 35 52 48 16 13 19 29 65 74 52 52 58 55 71 74
3 3 3 3 0 0 0 0 0 0 0 0 0 0 0 0 0 0 0 0 0 3 3 6 19 13 13 6 19 58 16 13 16 16 45 71 61 32 42 58 58 65 74
3 3 3 0 0 0 0 0 0 0 0 0 0 0 0 0 0 0 0 0 0 0 0 6 10 3 6 6 6 10 6 6 19 16 42 65 48 42 52 48 52 61 58
3 3 3 3 3 3 3 0 0 0 0 0 0 0 0 0 0 0 0 0 0 0 0 0 0 0 0 3 3 0 0 10 13 29 39 58 42 39 39 55 58 68 65
3 3 3 3 3 3 3 0 0 0 0 0 0 0 0 0 0 0 0 0 0 0 0 0 0 0 0 0 0 0 0 3 16 13 23 55 48 48 35 48 68 74 77
0 3 3 3 3 3 0 0 0 0 0 0 0 0 0 0 0 0 0 0 0 0 0 0 0 0 0 0 0 0 0 0 16 13 19 35 52 52 52 52 48 65 65
0 3 3 3 3 3 0 0 0 0 0 0 0 0 0 0 0 0 0 0 0 0 0 0 0 0 0 0 0 0 0 0 0 10 10 19 19 42 58 55 61 58 65
0 0 3 3 3 3 0 0 0 0 0 0 0 0 0 0 0 0 0 0 0 0 0 0 0 0 0 0 0 0 0 3 0 3 10 16 10 3 39 71 81 68 65
0 0 3 3 3 3 0 0 0 0 0 0 0 0 0 0 0 0 0 0 0 0 0 0 0 0 0 0 0 0 0 3 3 3 6 3 6 10 3 23 61 65 71
0 0 3 3 3 0 0 0 0 0 0 0 0 0 0 0 0 0 0 0 0 0 0 0 0 3 0 0 0 0 3 0 3 3 6 6 3 3 3 6 16 23 58
0 0 0 3 3 0 0 0 0 0 0 0 0 0 0 0 0 0 0 0 0 0 0 0 3 0 0 0 0 0 0 3 6 3 3 3 3 0 0 3 3 0 6
3 3 0 0 3 0 0 0 0 0 0 0 0 0 0 0 0 0 0 0 0 0 0 0 3 0 0 0 0 0 0 0 0 0 0 3 0 3 3 3 10 3 3
3 0 0 0 0 0 0 0 0 0 0 0 0 0 0 0 0 0 0 0 0 0 0 0 0 0 0 0 0 0 0 0 0 0 0 0 0 3 3 3 3 10 3
3 3 0 0 0 0 0 0 3 3 0 0 0 0 0 0 0 0 0 0 0 0 0 0 0 0 0 0 0 0 0 0 0 0 0 0 0 0 0 3 0 3 3
0 0 3 0 0 0 0 0 0 0 0 0 0 0 0 0 0 0 0 0 0 0 0 0 0 3 0 0 0 0 0 0 0 0 0 0 0 0 0 0 3 0 0
0 0 0 3 6 3 3 0 0 0 3 0 0 0 0 0 0 0 0 0 0 0 0 0 0 3 3 0 0 3 0 0 0 0 0 0 0 0 0 0 0 3 3

GEFSSE_con_cape1000_132.txt.gz
Probability
10 48 81 81 84 84 87 87 81 84 74 68 71 71 71 68 65 65 71 71 68 74 81 77 74 81 84 87 84 84 84 81 84 81 77 90 94 84 74 74 65 55 65
23 68 81 77 77 81 84 81 74 68 61 61 65 61 58 55 55 55 48 45 55 58 65 74 74 74 71 74 74 71 74 74 84 81 74 81 87 74 71 68 65 58 68
35 61 71 68 74 74 65 58 55 58 58 58 48 45 42 42 42 39 35 39 45 42 45 58 61 71 68 65 71 71 68 71 77 84 74 58 61 77 77 68 68 65 68
32 32 45 58 61 55 55 52 52 48 45 35 26 29 29 26 26 23 26 29 29 32 35 39 45 48 52 61 61 55 61 68 77 77 39 52 45 74 74 68 68 58 52
23 35 42 55 55 48 45 45 39 32 29 23 23 23 19 19 19 23 16 19 19 16 26 35 39 35 32 35 48 52 55 65 68 39 26 35 35 74 71 65 68 55 52
23 29 39 48 52 42 39 32 29 23 16 16 13 19 13 6 13 13 10 13 16 16 16 23 29 35 29 23 26 48 55 55 48 23 13 29 45 71 74 68 65 65 65
19 23 29 45 35 35 29 26 23 16 16 13 13 13 6 6 3 6 10 13 19 16 16 23 23 26 26 29 23 35 48 52 35 13 13 23 48 74 71 68 55 58 74
10 13 26 29 29 23 26 23 16 10 6 6 3 0 0 0 3 6 6 10 10 16 19 19 16 16 19 26 29 32 42 52 32 6 13 10 61 77 68 65 58 52 68
6 10 13 10 23 23 16 6 3 3 3 3 0 0 0 0 0 0 0 3 6 13 13 13 13 16 13 23 32 42 42 65 29 10 13 16 61 71 65 61 71 71 68
3 6 3 3 3 3 3 6 3 6 3 0 3 3 3 3 3 0 0 3 0 6 13 13 13 13 16 19 32 39 58 42 13 10 6 26 74 61 52 65 74 74 71
0 3 3 3 3 3 3 3 6 6 6 3 0 3 3 0 0 0 0 3 6 3 6 13 13 10 16 16 19 23 26 3 3 0 6 35 68 71 61 65 65 71 77
0 0 3 3 3 3 3 3 3 3 0 0 0 0 0 0 0 0 0 10 10 6 3 10 10 16 10 3 3 13 3 3 0 6 6 45 65 58 61 58 61 68 77
0 0 0 0 0 3 3 3 0 0 0 0 0 0 0 0 0 0 0 0 0 0 0 0 0 3 3 0 0 0 0 0 0 6 6 55 61 55 55 61 61 71 74
0 0 0 0 0 0 0 3 0 0 0 0 0 0 0 0 0 0 0 0 0 0 0 0 0 0 0 0 0 0 0 0 0 6 6 65 65 48 45 55 55 65 68
0 0 0 0 0 0 0 0 0 0 0 0 0 0 0 0 0 0 0 0 0 0 0 0 0 0 0 0 0 0 0 0 0 0 3 39 58 48 48 48 52 61 71
0 0 0 0 0 0 0 0 0 0 0 0 0 0 0 0 0 0 0 0 0 0 0 0 0 0 0 0 0 0 0 0 0 0 3 10 42 45 58 48 52 61 68
0 0 0 0 0 0 0 0 0 0 0 0 0 0 0 0 0 0 0 0 0 0 0 0 0 0 0 0 0 0 0 3 3 3 3 6 6 26 48 55 61 71 68
0 0 0 0 0 0 0 0 0 0 0 0 0 0 0 0 0 0 0 0 0 0 0 0 0 0 0 0 0 0 0 3 0 0 3 3 0 6 13 58 65 74 61
0 0 0 0 0 0 0 0 0 0 0 0 0 0 0 0 0 0 0 0 0 0 0 0 0 0 0 0 0 0 0 0 0 0 3 0 0 3 6 10 48 61 68
0 0 0 0 0 0 0 0 0 0 0 0 0 0 0 0 0 0 0 0 0 0 0 0 0 0 0 0 0 0 0 0 0 0 0 0 0 0 0 0 6 13 58
0 0 0 0 0 0 0 0 0 0 0 0 0 0 0 0 0 0 0 0 0 0 0 0 0 0 0 0 0 0 0 0 0 0 0 0 0 0 0 0 0 0 13
0 0 0 0 0 0 0 0 0 0 0 0 0 0 0 0 0 0 0 0 0 0 0 0 0 0 0 0 0 0 0 0 0 0 0 0 0 0 0 0 0 0 0
0 0 0 0 0 0 0 0 0 0 0 0 0 0 0 0 0 0 0 0 0 0 0 0 0 0 0 0 0 0 0 0 0 0 0 0 0 0 0 0 0 0 0
0 0 0 0 0 0 0 0 0 0 0 0 0 0 0 0 0 0 0 0 0 0 0 0 0 0 0 0 0 0 0 0 0 0 0 0 0 0 0 0 0 0 0
0 0 0 0 0 0 0 0 0 0 0 0 0 0 0 0 0 0 0 0 0 0 0 0 0 0 0 0 0 0 0 0 0 0 0 0 0 0 0 0 0 0 0
0 0 0 0 0 0 0 0 0 0 0 0 0 0 0 0 0 0 0 0 0 0 0 0 0 0 0 0 0 0 0 0 0 0 0 0 0 0 0 0 0 0 0

GEFSSE_con_cape1000_138.txt.gz
Probability
6 16 58 71 71 77 68 74 71 68 61 65 61 68 61 61 61 55 61 61 65 65 71 65 68 74 71 71 74 77 77 81 84 77 84 90 87 90 74 77 71 68 68
6 26 61 68 65 71 61 65 55 61 58 58 58 58 45 42 45 48 45 45 42 48 58 58 58 61 71 74 71 68 71 74 74 84 87 71 74 81 77 68 58 58 65
13 32 61 55 52 55 55 55 58 58 58 55 45 39 32 32 35 32 39 42 42 45 48 48 52 52 55 61 68 68 71 74 74 81 65 48 58 81 68 68 71 55 58
16 29 39 48 52 52 52 52 45 42 42 35 35 29 26 26 19 23 29 29 26 26 35 42 45 48 45 52 58 61 68 71 74 71 32 39 39 74 81 68 55 55 61
16 29 39 45 42 48 45 42 32 26 29 29 29 29 29 23 23 19 16 19 19 23 29 32 32 42 39 48 45 45 55 68 58 42 23 19 19 65 84 74 58 55 52
19 29 32 39 39 35 35 32 19 19 19 23 26 19 19 13 16 16 16 16 19 23 23 29 29 26 29 32 42 42 45 45 42 19 16 19 16 55 68 68 71 58 58
10 16 29 32 32 29 29 19 16 16 16 16 13 10 10 6 10 10 13 13 13 23 19 26 19 23 23 32 32 42 39 39 10 10 16 13 23 68 74 71 61 61 58
6 10 13 19 23 19 19 13 13 10 10 6 3 3 6 3 10 10 10 13 13 13 16 16 23 23 26 26 29 35 39 45 16 10 10 10 39 71 61 65 52 58 65
3 3 3 6 13 19 6 6 6 3 3 3 3 3 0 0 0 0 3 6 10 13 10 16 16 16 19 19 19 26 35 42 0 6 13 3 32 58 61 68 65 58 58
0 0 0 0 0 0 0 3 3 6 6 6 3 3 3 0 0 3 3 3 3 13 13 16 13 13 13 19 23 26 26 23 3 3 3 10 39 48 55 58 68 65 55
0 0 0 0 0 0 0 0 3 3 3 3 3 3 0 0 0 0 0 6 10 6 13 13 13 19 16 10 19 19 6 0 3 3 0 26 39 45 52 55 65 52 61
0 0 0 0 0 0 0 0 3 3 3 3 0 0 0 0 0 0 0 0 0 3 3 6 6 3 3 3 3 0 0 0 0 0 3 45 45 42 48 45 68 58 55
0 0 0 0 0 0 0 0 0 3 3 0 0 0 0 0 0 0 0 0 0 0 0 0 0 0 0 0 0 0 0 0 0 0 6 42 58 55 42 52 61 61 58
0 0 0 0 0 0 0 0 0 0 0 0 0 0 0 0 0 0 0 0 0 0 0 0 0 0 0 0 0 0 0 0 0 0 0 39 68 48 39 48 45 61 58
0 0 0 0 0 0 0 0 0 0 0 0 0 0 0 0 0 0 0 0 0 0 0 0 0 0 0 0 0 0 0 0 0 0 0 16 52 52 35 35 42 45 55
0 0 0 0 0 0 0 0 0 0 0 0 0 0 0 0 0 0 0 0 0 0 0 0 0 0 0 0 0 0 0 0 0 0 3 3 16 42 48 39 45 45 35
0 0 0 0 0 0 0 0 0 0 0 0 0 0 0 0 0 0 0 0 0 0 0 0 0 0 0 0 0 0 0 0 0 0 0 3 6 6 45 45 52 52 35
0 0 0 0 0 0 0 0 0 0 0 0 0 0 0 0 0 0 0 0 0 0 0 0 0 0 0 0 0 0 0 0 0 0 0 0 3 3 10 35 39 52 39
0 0 0 0 0 0 0 0 0 0 0 0 0 0 0 0 0 0 0 0 0 0 0 0 0 0 0 0 0 0 0 0 0 0 0 0 3 3 0 3 23 35 48
0 0 0 0 0 0 0 0 0 0 0 0 0 0 0 0 0 0 0 0 0 0 0 0 0 0 0 0 0 0 0 0 0 0 0 0 3 3 0 0 3 6 29
0 0 0 0 0 0 0 0 0 0 0 0 0 0 0 0 0 0 0 0 0 0 0 0 0 0 0 0 0 0 0 0 0 0 0 0 0 0 0 0 0 0 0
0 0 0 0 0 0 0 0 0 0 0 0 0 0 0 0 0 0 0 0 0 0 0 0 0 0 0 0 0 0 0 0 0 0 0 0 0 0 0 0 0 0 0
0 0 0 0 0 0 0 0 0 0 0 0 0 0 0 0 0 0 0 0 0 0 0 0 0 0 0 0 0 0 0 0 0 0 0 0 0 0 0 0 0 0 0
0 0 0 0 0 0 0 0 0 0 0 0 0 0 0 0 0 0 0 0 0 0 0 0 0 0 0 0 0 0 0 0 0 0 0 0 0 0 0 0 0 0 0
0 0 0 0 0 0 0 0 0 0 0 0 0 0 0 0 0 0 0 0 0 0 0 0 0 0 0 0 0 0 0 0 0 0 0 0 0 0 0 0 0 0 0
0 0 0 0 0 0 0 0 0 0 0 0 0 0 0 0 0 0 0 0 0 0 0 0 0 0 0 0 0 0 0 0 0 0 0 0 0 0 0 0 0 0 0

GEFSSE_con_cape1000_144.txt.gz
Probability
0 16 35 42 52 61 65 68 65 65 68 71 65 55 52 52 52 48 55 52 58 61 61 65 61 61 68 68 68 71 68 74 74 71 84 84 84 81 81 71 71 68 61
6 19 32 45 48 52 55 52 55 55 58 55 55 42 39 39 42 42 39 48 48 58 52 52 58 55 55 58 61 61 71 74 74 71 71 77 74 77 81 74 65 68 65
10 16 23 39 45 48 52 45 48 48 45 45 42 32 26 26 26 32 35 29 32 35 39 42 48 48 55 55 61 61 68 71 71 77 68 68 74 71 74 71 65 58 55
3 16 19 45 45 42 45 45 39 45 39 32 26 26 26 26 23 26 29 29 32 32 29 32 32 42 48 52 55 55 61 68 65 61 55 52 48 61 74 71 71 58 58
6 16 29 32 29 32 26 39 26 35 35 26 23 23 23 23 19 16 23 29 32 32 29 26 26 35 42 48 45 39 52 65 58 58 48 58 65 61 61 65 61 61 58
10 10 16 29 29 29 23 26 26 26 23 26 23 19 19 16 16 19 16 23 23 26 26 26 23 23 32 39 39 39 39 45 32 48 52 52 58 65 77 68 65 55 52
6 6 10 23 16 16 19 23 13 13 13 16 13 16 16 13 16 19 16 10 13 13 23 26 26 29 26 26 32 35 35 32 26 48 48 52 48 58 65 61 55 55 48
3 3 6 10 10 10 13 6 10 10 13 10 6 10 10 6 10 13 19 13 10 13 13 19 26 23 23 23 29 29 39 45 19 13 35 39 48 48 55 58 58 48 52
0 3 3 3 0 3 6 3 3 3 0 6 6 6 13 10 6 6 13 13 10 10 13 19 23 19 26 23 26 26 23 35 35 26 13 32 52 48 45 55 58 55 42
0 0 0 0 0 0 3 3 0 0 0 0 3 0 3 3 0 0 0 10 16 13 10 10 19 16 16 19 13 19 19 29 26 23 23 23 42 39 52 52 52 45 32
0 0 0 0 0 0 0 0 0 0 0 0 0 0 0 0 0 0 0 3 6 3 10 6 10 10 13 13 10 13 13 16 19 13 19 29 35 45 52 42 45 39 32
0 0 0 0 0 0 0 0 0 0 0 0 0 0 0 0 0 0 0 0 0 0 6 6 3 0 3 3 3 6 13 13 16 13 16 42 35 45 42 35 42 35 32
0 0 0 0 0 0 0 0 0 0 0 0 0 0 0 0 0 0 0 0 0 0 0 3 3 3 3 6 6 6 6 3 10 13 23 45 42 39 42 35 35 39 32
0 0 0 0 0 0 0 0 0 0 0 0 0 0 0 0 0 0 0 0 0 0 0 3 3 3 3 3 0 0 3 3 6 6 26 35 45 45 35 39 39 32 26
0 0 0 0 0 0 0 0 0 0 0 0 0 0 0 0 0 0 0 0 0 0 0 3 3 3 3 3 0 0 0 3 0 3 16 23 39 42 39 39 35 35 29
0 0 0 0 0 0 0 0 0 0 0 0 0 0 0 0 0 0 0 0 0 0 0 0 0 0 0 3 3 3 6 3 3 3 6 3 32 32 32 35 35 39 29
0 0 0 0 0 0 0 0 0 0 0 0 0 0 0 0 0 0 0 0 0 0 0 0 0 0 0 0 3 6 6 3 3 3 3 6 10 19 32 29 32 35 29
0 0 0 0 0 0 0 0 0 0 0 0 0 0 0 0 0 0 0 0 0 0 0 0 0 3 3 3 6 3 3 3 3 3 3 6 13 10 13 19 29 35 19
0 0 0 0 0 0 0 0 0 0 0 0 0 0 0 0 0 0 0 0 0 0 0 0 0 3 3 3 3 6 3 3 6 10 3 3 10 16 13 16 23 29 32
0 0 0 0 0 0 0 0 0 0 0 0 0 0 0 0 0 0 0 0 0 0 0 3 3 3 3 3 3 3 3 3 6 10 6 3 10 3 3 10 19 19 19
0 0 0 0 0 0 0 0 0 0 0 0 0 0 0 0 0 0 0 0 0 0 0 0 6 3 3 3 3 3 3 6 3 13 10 6 10 13 13 6 10 10 19
0 0 0 0 0 0 0 0 0 0 0 0 0 0 0 0 0 0 0 0 0 3 3 0 0 6 3 0 0 3 0 3 6 6 10 10 6 13 6 0 3 3 0
0 0 0 0 0 0 0 0 0 0 0 0 0 0 0 0 0 0 0 0 0 0 3 0 0 0 3 0 0 3 0 0 0 6 6 10 13 13 10 3 6 3 0
0 0 0 0 0 0 0 0 0 0 0 0 0 0 0 0 0 0 0 0 0 0 0 0 3 3 6 0 0 3 0 0 0 6 6 6 13 13 10 3 6 6 10
0 3 0 0 0 0 0 0 0 0 0 0 0 0 0 0 0 0 0 0 0 0 0 0 3 3 6 3 3 3 0 0 0 3 3 6 3 3 10 3 10 10 3
0 0 0 0 0 0 0 0 0 0 0 0 0 0 0 0 0 0 0 0 0 0 0 0 0 0 0 6 3 3 3 0 0 0 3 0 3 3 3 3 0 3 3